When you browse on this site, cookies collect data to enhance your experience and personalize the content and advertising you see.
Visit our Privacy Policy to learn more. By continuing to use the site, you agree to this use of cookies and data.
  • în România
  • Lista ţărilor
  • Pe 7 zile
  • Temperatura apei
  • Meteo pe hartă
  • Widget-uri
  • user-avatar
    Intrare

    Meteo pe oră la Nagasaki

    Astăzi, 25 Ianuarie, Sâmbătă

    Timp Temperatura Precipitaţii Vânt Presiune Umiditate
    00:00 +15°C° 0 mm 6 m/s 766 mmHg 74%
    01:00 +15°C° 0 mm 6 m/s 766 mmHg 75%
    02:00 +14°C° 0 mm 6 m/s 765 mmHg 75%
    03:00 +14°C° 0 mm 5 m/s 765 mmHg 73%
    04:00 +14°C° 0 mm 5 m/s 765 mmHg 74%
    05:00 +14°C° 0 mm 5 m/s 765 mmHg 74%
    06:00 +14°C° 0 mm 5 m/s 765 mmHg 75%
    07:00 +14°C° 0.1 mm 5 m/s 766 mmHg 77%
    08:00 +14°C° 0.1 mm 5 m/s 766 mmHg 79%
    09:00 +14°C° 0.1 mm 5 m/s 766 mmHg 81%
    10:00 +14°C° 0 mm 5 m/s 766 mmHg 81%
    11:00 +14°C° 0 mm 5 m/s 766 mmHg 81%
    12:00 +14°C° 0 mm 5 m/s 766 mmHg 81%
    13:00 +14°C° 0.3 mm 5 m/s 765 mmHg 82%
    14:00 +13°C° 0.3 mm 5 m/s 765 mmHg 83%
    15:00 +14°C° 0 mm 5 m/s 764 mmHg 79%
    16:00 +13°C° 0.7 mm 6 m/s 764 mmHg 81%
    17:00 +12°C° 0.7 mm 8 m/s 764 mmHg 83%
    18:00 +12°C° 0.7 mm 10 m/s 764 mmHg 85%
    19:00 +11°C° 3.1 mm 10 m/s 764 mmHg 86%
    20:00 +10°C° 3.1 mm 9 m/s 765 mmHg 87%
    21:00 +10°C° 3.1 mm 9 m/s 765 mmHg 88%
    22:00 +10°C° 1.5 mm 9 m/s 765 mmHg 88%
    23:00 +10°C° 1.5 mm 8 m/s 765 mmHg 88%

    Mâine, 26 Ianuarie, Duminică

    Timp Temperatura Precipitaţii Vânt Presiune Umiditate
    00:00 +10°C° 1.5 mm 8 m/s 765 mmHg 87%
    01:00 +10°C° 0.5 mm 7 m/s 764 mmHg 88%
    02:00 +10°C° 0.5 mm 6 m/s 764 mmHg 88%
    03:00 +10°C° 0.5 mm 5 m/s 764 mmHg 89%
    04:00 +10°C° 0.3 mm 6 m/s 764 mmHg 89%
    05:00 +10°C° 0.3 mm 6 m/s 763 mmHg 88%
    06:00 +10°C° 0.3 mm 6 m/s 763 mmHg 88%
    07:00 +10°C° 0 mm 6 m/s 763 mmHg 87%
    08:00 +11°C° 0 mm 6 m/s 763 mmHg 86%
    09:00 +11°C° 0 mm 6 m/s 763 mmHg 85%
    10:00 +11°C° 0 mm 6 m/s 763 mmHg 84%
    11:00 +11°C° 0 mm 6 m/s 763 mmHg 82%
    12:00 +11°C° 0 mm 6 m/s 763 mmHg 81%
    13:00 +13°C° 0.3 mm 6 m/s 762 mmHg 80%
    14:00 +13°C° 0.3 mm 6 m/s 761 mmHg 80%
    15:00 +13°C° 0.3 mm 6 m/s 761 mmHg 80%
    16:00 +13°C° 1.5 mm 6 m/s 761 mmHg 82%
    17:00 +11°C° 1.5 mm 7 m/s 761 mmHg 84%
    18:00 +11°C° 1.5 mm 8 m/s 761 mmHg 86%
    19:00 +11°C° 1.9 mm 9 m/s 761 mmHg 87%
    20:00 +11°C° 1.9 mm 10 m/s 761 mmHg 88%
    21:00 +9°C° 1.9 mm 10 m/s 761 mmHg 89%
    22:00 +9°C° 0.8 mm 11 m/s 760 mmHg 89%
    23:00 +9°C° 0.8 mm 11 m/s 759 mmHg 88%

    Poimâine, 27 Ianuarie, Luni

    Timp Temperatura Precipitaţii Vânt Presiune Umiditate
    00:00 +11°C° 0.8 mm 11 m/s 758 mmHg 87%
    01:00 +9°C° 1.5 mm 10 m/s 758 mmHg 88%
    02:00 +9°C° 1.5 mm 10 m/s 757 mmHg 89%
    03:00 +9°C° 1.5 mm 10 m/s 757 mmHg 90%
    04:00 +9°C° 3.7 mm 10 m/s 756 mmHg 90%
    05:00 +9°C° 3.7 mm 10 m/s 756 mmHg 91%
    06:00 +9°C° 3.7 mm 10 m/s 755 mmHg 92%
    07:00 +9°C° 2 mm 10 m/s 755 mmHg 91%
    08:00 +10°C° 2 mm 9 m/s 755 mmHg 91%
    09:00 +10°C° 2 mm 8 m/s 755 mmHg 90%
    10:00 +11°C° 2.4 mm 8 m/s 755 mmHg 90%
    11:00 +11°C° 2.4 mm 8 m/s 755 mmHg 89%
    12:00 +11°C° 2.4 mm 8 m/s 754 mmHg 89%
    13:00 +11°C° 0.9 mm 9 m/s 754 mmHg 87%
    14:00 +11°C° 0.9 mm 9 m/s 754 mmHg 85%
    15:00 +11°C° 0.9 mm 10 m/s 754 mmHg 84%
    16:00 +11°C° 0 mm 9 m/s 754 mmHg 82%
    17:00 +11°C° 0 mm 8 m/s 755 mmHg 79%
    18:00 +11°C° 0 mm 7 m/s 755 mmHg 77%
    19:00 +11°C° 0 mm 8 m/s 755 mmHg 77%
    20:00 +11°C° 0 mm 9 m/s 756 mmHg 77%
    21:00 +11°C° 0 mm 9 m/s 756 mmHg 77%
    22:00 +11°C° 0 mm 9 m/s 756 mmHg 77%
    23:00 +11°C° 0 mm 8 m/s 756 mmHg 76%

    28 Ianuarie, Marţi

    Timp Temperatura Precipitaţii Vânt Presiune Umiditate
    00:00 +11°C° 0 mm 8 m/s 756 mmHg 76%
    01:00 +11°C° 0 mm 8 m/s 756 mmHg 75%
    02:00 +11°C° 0 mm 7 m/s 756 mmHg 75%
    03:00 +11°C° 0 mm 7 m/s 756 mmHg 74%
    04:00 +11°C° 0 mm 7 m/s 756 mmHg 74%
    05:00 +11°C° 0 mm 7 m/s 757 mmHg 73%
    06:00 +11°C° 0 mm 6 m/s 757 mmHg 73%
    07:00 +11°C° 0 mm 6 m/s 757 mmHg 73%
    08:00 +12°C° 0 mm 5 m/s 757 mmHg 73%
    09:00 +12°C° 0 mm 4 m/s 758 mmHg 73%
    10:00 +12°C° 0 mm 5 m/s 758 mmHg 73%
    11:00 +12°C° 0 mm 5 m/s 757 mmHg 74%
    12:00 +11°C° 0 mm 6 m/s 757 mmHg 74%
    13:00 +13°C° 0 mm 6 m/s 757 mmHg 74%
    14:00 +13°C° 0 mm 6 m/s 757 mmHg 74%
    15:00 +13°C° 0 mm 6 m/s 757 mmHg 74%
    16:00 +12°C° 0.1 mm 7 m/s 757 mmHg 74%
    17:00 +12°C° 0.1 mm 7 m/s 757 mmHg 74%
    18:00 +13°C° 0.1 mm 8 m/s 757 mmHg 74%
    19:00 +13°C° 0.2 mm 9 m/s 758 mmHg 75%
    20:00 +13°C° 0.2 mm 9 m/s 758 mmHg 76%
    21:00 +13°C° 0.2 mm 10 m/s 758 mmHg 77%
    22:00 +13°C° 0.1 mm 10 m/s 758 mmHg 77%
    23:00 +12°C° 0.1 mm 10 m/s 758 mmHg 77%

    29 Ianuarie, Miercuri

    Timp Temperatura Precipitaţii Vânt Presiune Umiditate
    00:00 +12°C° 0.1 mm 10 m/s 758 mmHg 77%
    01:00 +12°C° 0 mm 10 m/s 758 mmHg 77%
    02:00 +12°C° 0 mm 10 m/s 758 mmHg 77%
    03:00 +12°C° 0 mm 10 m/s 758 mmHg 77%
    04:00 +12°C° 0.1 mm 10 m/s 758 mmHg 77%
    05:00 +12°C° 0.1 mm 10 m/s 757 mmHg 77%
    06:00 +12°C° 0.1 mm 10 m/s 757 mmHg 76%
    07:00 +12°C° 0.1 mm 9 m/s 758 mmHg 75%
    08:00 +12°C° 0.1 mm 9 m/s 758 mmHg 75%
    09:00 +12°C° 0.1 mm 9 m/s 758 mmHg 74%
    10:00 +12°C° 0.1 mm 9 m/s 758 mmHg 74%
    11:00 +12°C° 0.1 mm 9 m/s 758 mmHg 73%
    12:00 +12°C° 0.1 mm 9 m/s 758 mmHg 73%
    13:00 +12°C° 0.1 mm 9 m/s 758 mmHg 73%
    14:00 +12°C° 0.1 mm 10 m/s 757 mmHg 73%
    15:00 +12°C° 0.1 mm 10 m/s 757 mmHg 74%
    16:00 +12°C° 0.1 mm 10 m/s 757 mmHg 75%
    17:00 +12°C° 0.1 mm 10 m/s 757 mmHg 75%
    18:00 +11°C° 0.1 mm 10 m/s 757 mmHg 76%
    19:00 +11°C° 0.4 mm 10 m/s 757 mmHg 76%
    20:00 +11°C° 0.4 mm 9 m/s 758 mmHg 76%
    21:00 +11°C° 0.4 mm 9 m/s 758 mmHg 76%
    22:00 +11°C° 0.5 mm 9 m/s 758 mmHg 75%
    23:00 +10°C° 0.5 mm 8 m/s 757 mmHg 74%

    30 Ianuarie, Joi

    Timp Temperatura Precipitaţii Vânt Presiune Umiditate
    00:00 +10°C° 0.5 mm 8 m/s 757 mmHg 73%
    01:00 +10°C° 0.5 mm 8 m/s 757 mmHg 74%
    02:00 +10°C° 0.5 mm 8 m/s 757 mmHg 74%
    03:00 +10°C° 0.5 mm 8 m/s 757 mmHg 74%
    04:00 +10°C° 0.8 mm 8 m/s 757 mmHg 75%
    05:00 +9°C° 0.8 mm 8 m/s 757 mmHg 76%
    06:00 +9°C° 0.8 mm 8 m/s 756 mmHg 77%
    07:00 +9°C° 0.9 mm 8 m/s 757 mmHg 77%
    08:00 +9°C° 0.9 mm 8 m/s 757 mmHg 76%
    09:00 +9°C° 0.9 mm 8 m/s 757 mmHg 76%
    10:00 +9°C° 0.9 mm 8 m/s 757 mmHg 74%
    11:00 +9°C° 0.9 mm 8 m/s 757 mmHg 73%
    12:00 +9°C° 0.9 mm 7 m/s 757 mmHg 72%
    13:00 +9°C° 0.5 mm 8 m/s 757 mmHg 72%
    14:00 +8°C° 0.5 mm 9 m/s 757 mmHg 72%
    15:00 +8°C° 0.5 mm 10 m/s 756 mmHg 71%
    16:00 +8°C° 0.2 mm 9 m/s 757 mmHg 70%
    17:00 +8°C° 0.2 mm 9 m/s 757 mmHg 69%
    18:00 +8°C° 0.2 mm 9 m/s 757 mmHg 68%
    19:00 +8°C° 0.3 mm 9 m/s 757 mmHg 67%
    20:00 +8°C° 0.3 mm 9 m/s 758 mmHg 66%
    21:00 +8°C° 0.3 mm 9 m/s 758 mmHg 65%
    22:00 +8°C° 0.5 mm 9 m/s 758 mmHg 67%
    23:00 +8°C° 0.5 mm 10 m/s 758 mmHg 69%
    Arată mai mult